Location: Newark
(40.3500°N, 15.2333°E)
Time: 14:36:14
(UTC+00:00)

Vanguard 1 - Pass Details

Date: 24 January 2020
Orbit: 649 x 3834 km, 34.3° (Epoch: 28 February)

Event Time Altitude Azimuth Distance (km) Brightness Sun altitude
Rises 23:51:46 0° 256° (WSW) 4,808 - -67.3°
Reaches altitude 10° 00:00:19 10° 216° (SW) 4,813 - -66.5°
Maximum altitude 00:01:18 10° 212° (SSW) 4,910 - -66.4°
Drops below altitude 10° 00:02:20 10° 207° (SSW) 5,027 - -66.3°
Sets 00:14:56 0° 172° (S) 7,164 - -64.9°
